Terug naar catalogus

SL-12 R/B(2)

ActiefHEO
NORAD 26393·ROCKET BODY·🇷🇺 Russia

Gelanceerd Jun 30, 2000 vanaf Baikonur Cosmodrome

Loading…

Volgende Passages (komende 24 uur)

TLE

VersSource: Space-Track

Epoch: Sep 13, 2026, 20:48 UTC

1 26393U 00035D   26256.86714076  .00000109  00000-0  00000-0 0  9991
2 26393  61.8204 164.4521 5185898 291.6192  22.0986  1.45659391139387

Volg SL-12 R/B(2) in realtime met AllMySat

Download on the App Store